OpenBCM V1.08-5-g2f4a (Linux)

Packet Radio Mailbox

IZ3LSV

[San Dona' di P. JN]

 Login: GUEST





  
I0OJJ  > KEPS     31.03.25 06:49l 326 Lines 15575 Bytes #11 (0) @ AMSAT
BID : ORB25090.1
Read: GUEST
Subj: 2Line Orbital Elements 25090.AMSAT
Path: IZ3LSV<I0OJJ
Sent: 250331/0448z @:I0OJJ.ITA.EU [Rome] obcm1.08-6-g5b69
From: I0OJJ @ I0OJJ.ITA.EU (Gustavo)
To:   KEPS @ AMSAT
X-Info: Sent with login password


QST de W1STR

AMSAT Orbital Elements for Amateur Satellites in TLE Format
From Orbital Analysis Office
New England Sci-Tech STEM Education Center
Natick, MA March 31, 2025
To all radio amateurs


These element sets describe the orbits of various satellites 
in use by the amateur radio community. For details see:
www.amsat.org/keplerian-elements-formats/

A daily update of element sets is available at:
www.amsat.org/tle/daily-bulletin.txt
or without bulletin text:
www.amsat.org/tle/dailytle.txt


AO-07
1 07530U 74089B   25089.63669338 -.00000045  00000-0  12312-4 0  9994
2 07530 101.9955  93.1413 0011884 257.2405 215.5766 12.53687835304934
UO-11
1 14781U 84021B   25089.38046539  .00003439  00000-0  37072-3 0  9999
2 14781  97.7475  57.2039 0007057 200.0859 160.0081 14.89047557191042
AO-27
1 22825U 93061C   25089.16734986  .00000312  00000-0  13635-3 0  9993
2 22825  98.7446 150.3426 0007684 328.7227  31.3497 14.30763587643505
FO-29
1 24278U 96046B   25089.62644823  .00000003  00000-0  37380-4 0  9995
2 24278  98.5830 352.8376 0350187 166.2499 194.8485 13.53241918413175
NOAA-15
1 25338U 98030A   25089.78072887  .00000365  00000-0  16790-3 0  9992
2 25338  98.5431 116.5932 0009922 200.3210 159.7577 14.26927744398300
GO-32
1 25397U 98043D   25089.52943278  .00000260  00000-0  13276-3 0  9994
2 25397  98.9650  67.1888 0002273  69.2590 290.8831 14.24285532388172
ISS
1 25544U 98067A   25089.66732664  .00020405  00000-0  36046-3 0  9997
2 25544  51.6390 335.9127 0003811  63.1728  17.2317 15.50319906502980
NO-44
1 26931U 01043C   25089.74065859  .00000432  00000-0  19307-3 0  9999
2 26931  67.0510 310.9916 0005574 268.5707  91.4756 14.31678700227120
SO-50
1 27607U 02058C   25089.26989883  .00003972  00000-0  51603-3 0  9993
2 27607  64.5543  60.6057 0048016 351.2400   8.7862 14.81285542198660
CO-55
1 27844U 03031E   25089.49994504  .00000845  00000-0  38739-3 0  9990
2 27844  98.6792  98.6850 0010367  40.0839 320.1103 14.23909918128529
CO-57
1 27848U 03031J   25089.48569928  .00000720  00000-0  33708-3 0  9994
2 27848  98.6820  98.7297 0010516  55.5879 304.6292 14.23256910128255
RS-22
1 27939U 03042A   25089.72849045  .00002861  00000-0  46312-3 0  9998
2 27939  98.3211 257.5023 0010760 230.5691 259.4881 14.72060702150406
NOAA-18
1 28654U 05018A   25089.76987951  .00000381  00000-0  22553-3 0  9997
2 28654  98.8443 170.0387 0013478 334.0715  25.9781 14.13560754 23749
CO-58
1 28895U 05043F   25089.36056273  .00003907  00000-0  64986-3 0  9995
2 28895  98.2375 232.8824 0015177 169.2488 190.9045 14.70601037 36473
CO-65
1 32785U 08021C   25089.48240307  .00009240  00000-0  68459-3 0  9998
2 32785  97.7775  60.1995 0012147  91.4633 268.7983 15.03287673918395
AAUSAT2
1 32788U 08021F   25089.52041499  .00211943  00000-0  23473-2 0  9998
2 32788  97.6040  83.9070 0006145 135.1085 225.0670 15.62271138922205
CO-66
1 32791U 08021J   25088.90249672  .00021321  00000-0  11058-2 0  9991
2 32791  97.7233  67.4850 0006686  70.9320 289.2636 15.16157433919621
RS-30
1 32953U 08025A   25089.74123245  .00000040  00000-0  21987-3 0  9993
2 32953  82.4975 271.2419 0019287 197.9311 162.1090 12.43161197764734
NOAA-19
1 33591U 09005A   25089.76475321  .00000355  00000-0  21300-3 0  9996
2 33591  99.0041 154.0537 0013584 199.7393 160.3255 14.13326676832108
SRMSAT
1 37841U 11058D   25089.07014341  .00000630  00000-0  19899-3 0  9990
2 37841  19.9709 227.2779 0011824 358.8882 161.8211 14.11399061694996
ZACUBE-1
1 39417U 13066B   25089.76497902  .00010813  00000-0  95897-3 0  9992
2 39417  97.7742  47.2299 0042689 289.7258  69.9361 14.95673500614325
Delfi-N3xt
1 39428U 13066N   25089.33678913  .00009729  00000-0  10220-2 0  9990
2 39428  97.8372   7.8529 0085165 234.3708 124.9554 14.86997807608482
GOMX-1
1 39430U 13066Q   25089.77792333  .00003661  00000-0  57464-3 0  9995
2 39430  97.6931 312.7657 0134659  59.3399 302.1000 14.67235093605022
LO-74
1 39440U 13066AA  25089.80911120  .00009185  00000-0  94384-3 0  9996
2 39440  97.8447  34.9246 0064996  54.5778 306.1485 14.88997666612100
AO-73
1 39444U 13066AE  25089.38289109  .00013121  00000-0  10196-2 0  9991
2 39444  97.7653  51.1538 0039294 267.0106  92.6620 15.00822167612900
DTUSAT-2
1 40030U 14033W   25089.40874960  .00012457  00000-0  83969-3 0  9997
2 40030  98.0487  57.8834 0007674 309.9636  50.0915 15.06794968585676
EO-80
1 40032U 14033Y   25089.36613460  .00012482  00000-0  83946-3 0  9993
2 40032  98.0390  57.5922 0006580 231.5333 128.5303 15.06883189585648
LILACSAT-2
1 40908U 15049K   25089.69034673  .00018643  00000-0  52068-3 0  9998
2 40908  97.5123 108.4041 0011377  62.7384 297.5017 15.36700555527335
IO-86
1 40931U 15052B   25038.81889873  .00001817  00000-0  15548-3 0  9993
2 40931   6.0001 108.1159 0012838 187.7041 172.2889 14.78568669506492
Horyu-4
1 41340U 16012D   25089.14957760  .00033718  00000-0  10279-2 0  9998
2 41340  30.9974 250.9804 0008762  39.2865 320.8414 15.32712440501805
Lapan A3
1 41603U 16040E   25089.71517341  .00005561  00000-0  19876-3 0  9999
2 41603  97.1394  97.1278 0012042 153.1453 207.0414 15.29138544486956
CAS-2T
1 41847U 16066G   25089.28056224  .00002272  00000-0  33061-3 0  9995
2 41847  98.4241 164.3569 0347595  34.3560 327.9585 14.43253461440732
CAS-4B
1 42759U 17034B   25089.72206423  .00068532  00000-0  10443-2 0  9990
2 42759  43.0112  21.2610 0017162 161.3954 198.7538 15.53429270431544
CAS-4A
1 42761U 17034D   25089.79981444  .00071950  00000-0  10672-2 0  9995
2 42761  43.0147  18.5461 0018649 166.8703 193.2648 15.54118776431573
TechnoSat
1 42829U 17042E   25089.73448443  .00006900  00000-0  54327-3 0  9999
2 42829  97.3910 261.8391 0013789 155.3660 204.8227 15.01027894420097
AO-91
1 43017U 17073E   25089.60729473  .00014951  00000-0  78355-3 0  9996
2 43017  97.5343 322.2026 0178505  48.4143 313.2226 15.03070687398540
S-Net D
1 43186U 18014G   25089.26103777  .00008710  00000-0  52769-3 0  9991
2 43186  97.5698 352.9212 0011205 106.4026 253.8437 15.10769715391603
S-Net B
1 43187U 18014H   25089.46425762  .00009034  00000-0  54727-3 0  9991
2 43187  97.5700 353.0902 0011990 102.1957 258.0616 15.10755128391635
S-Net A
1 43188U 18014J   25089.72529744  .00009227  00000-0  55844-3 0  9991
2 43188  97.5704 353.4897 0011896 101.9124 258.3440 15.10783165391679
S-Net C
1 43189U 18014K   25089.46650832  .00009281  00000-0  56196-3 0  9997
2 43189  97.5723 353.2354 0013400  96.9228 263.3527 15.10751511390185
Ten-Koh
1 43677U 18084G   25089.36920649  .00004981  00000-0  40478-3 0  9999
2 43677  98.0960 258.7867 0010429 148.0385 212.1471 15.00043340349564
PO-101
1 43678U 18084H   25089.72331909  .00004228  00000-0  36484-3 0  9991
2 43678  98.0985 263.1803 0008527 157.9214 202.2376 14.97819640349774
QO-100
1 43700U 18090A   25089.56989130  .00000141  00000-0  00000-0 0  9993
2 43700   0.0156 124.6571 0001458 277.1221  17.3783  1.00272654 23229
MinXSS-2
1 43758U 18099A   25089.56922789  .00023811  00000-0  10195-2 0  9999
2 43758  97.5091 155.4913 0012765  52.3253 307.9138 15.22718483346150
AO-95
1 43770U 18099N   25089.12093485  .00015000  00000-0  79546-3 0  9994
2 43770  97.5002 148.0498 0012585 102.4770 257.7871 15.15394954345726
RANGE-A
1 43773U 18099R   25089.69975182  .00008110  00000-0  52805-3 0  9995
2 43773  97.4566 140.1644 0012879  78.8882 281.3794 15.08132524345536
MOVE-II
1 43780U 18099Y   25089.14773522  .00115127  00000-0  19204-2 0  9999
2 43780  97.4729 160.7328 0001002  83.0079 277.1287 15.51559610346644
SNUSat 2
1 43782U 18099AA  25089.62181213  .00013005  00000-0  73658-3 0  9990
2 43782  97.4685 145.8578 0013041  46.2083 314.0224 15.13074936345765
SnugLite
1 43784U 18099AC  25089.43004816  .00015038  00000-0  79172-3 0  9999
2 43784  97.4501 145.1018 0004350  62.7716 297.3959 15.15709196345858
ITASat 1
1 43786U 18099AE  25089.61972646  .00011166  00000-0  65807-3 0  9994
2 43786  97.4654 145.5634 0016322  93.1314 267.1784 15.11638454345733
EAGLET 1
1 43790U 18099AJ  25089.11873313  .00006942  00000-0  45206-3 0  9992
2 43790  97.4842 145.2461 0013556  77.9925 282.2822 15.08172538345290
ESEO
1 43792U 18099AL  25089.60627404  .00003556  00000-0  27364-3 0  9999
2 43792  97.4587 139.9072 0012596  51.3765 308.8586 15.02231887345162
CSIM
1 43793U 18099AM  25089.57546870  .00123878  00000-0  20185-2 0  9996
2 43793  97.4923 163.2911 0003401   0.3231 359.8023 15.52181213346554
JO-97
1 43803U 18099AX  25089.41432499  .00017071  00000-0  82713-3 0  9995
2 43803  97.4748 149.2008 0008121  45.3886 314.8009 15.18579035345965
Suomi 100
1 43804U 18099AY  25089.71758735  .00016069  00000-0  82498-3 0  9999
2 43804  97.4809 148.9803 0013166  40.9587 319.2632 15.16515877345959
ISAT
1 43879U 18111D   25089.25849472  .00028316  00000-0  10940-2 0  9994
2 43879  97.6003   2.2438 0012377  89.5991 270.6665 15.26143184342802
UWE-4
1 43880U 18111E   25089.19944232  .00022430  00000-0  95381-3 0  9993
2 43880  97.5943   1.1209 0015341  99.1601 261.1371 15.22930628342755
Sparrow
1 43881U 18111F   25089.75197360  .00032607  00000-0  12198-2 0  9999
2 43881  97.6138   5.3663 0010014 117.5194 242.7063 15.27208133340965
Prox-1
1 44339U 19036A   25089.30721583  .00017984  00000-0  24057-2 0  9994
2 44339  23.9967 169.3226 0006734 347.0021  13.0301 14.77878575307453
SONATE
1 44400U 19038Q   25089.63758859  .00121506  00000-0  10757-2 0  9995
2 44400  97.7025 108.4462 0010593 141.6777 218.5238 15.68167100318376
Taurus 1
1 44530U 19059C   25089.70740043  .00012781  00000-0  24236-2 0  9997
2 44530  98.5974 225.8392 0010082 247.1047 112.9091 14.64360324293568
